DateTimeUTC,F1_A11,F1_S11,BsB_S11,BsG_S11,BsR_S11,BbsB_S11,BbsG_S11,BbsR_S11,BaB_A11,BaG_A11,BaR_A11,Tu_S11,T_S11,Uu_S11,U_S11,P_S11,T1_A11
2021-12-19T10:00:00Z,00000200,21000000,,,,,,,-000.19,-000.09,-000.01,19.6,26.4,00.6,00.4,0666.7,31.1
2021-12-19T10:01:00Z,00000200,21000000,,,,,,,-000.16,0000.04,-000.28,19.7,26.4,00.6,00.4,0666.7,31.2
2021-12-19T10:02:00Z,00000200,21000000,,,,,,,0000.30,0000.33,0000.03,19.7,26.4,00.6,00.4,0666.7,31.1
2021-12-19T10:03:00Z,00000200,61000000,,,,,,,-000.26,0000.17,0000.61,19.7,26.5,00.6,00.4,0666.7,31.1
2021-12-19T10:04:00Z,00000200,41000000,-000.09,0000.20,0000.29,-000.43,0000.42,0000.21,0000.77,-000.05,0000.17,19.8,26.3,00.6,00.4,0667.6,31.1
2021-12-19T10:05:00Z,00000200,01000000,0000.06,0000.11,-000.21,0000.75,0000.28,-000.08,-000.13,0000.10,0000.09,19.9,26.3,00.7,00.5,0667.6,31.1
2021-12-19T10:06:00Z,00000200,01000000,0000.10,0000.28,-000.14,0000.20,-000.12,0000.33,0000.47,0000.04,-000.19,19.8,26.3,00.9,00.6,0667.6,31.1
2021-12-19T10:07:00Z,00000200,01000000,-000.06,0000.17,0000.02,0000.39,0000.30,-000.08,-000.22,0000.31,0000.15,19.8,26.2,00.8,00.6,0667.6,31.1
2021-12-19T10:08:00Z,00000200,01000000,0000.45,0000.34,0000.45,0000.44,0000.05,0000.41,0000.19,0000.01,-000.06,19.8,26.2,00.8,00.5,0667.6,31.1
2021-12-19T10:09:00Z,00000200,01000000,0000.72,0000.57,0000.18,0000.81,0000.41,-000.03,-000.03,0000.41,0000.21,19.7,26.2,00.8,00.5,0667.6,31.1
2021-12-19T10:10:00Z,00000200,01000000,0000.27,0000.04,0000.15,0000.57,0000.50,0000.11,0000.18,-000.06,0000.27,19.7,26.2,00.8,00.6,0667.6,31.1
2021-12-19T10:11:00Z,00000200,01000000,-000.43,0000.06,-000.12,0000.86,0000.06,0000.13,-000.01,-000.00,-000.42,19.7,26.1,00.8,00.5,0667.6,31.1
2021-12-19T10:12:00Z,00000200,01000000,-000.30,-000.14,0000.05,0000.36,0000.23,0000.00,0000.13,-000.05,0000.23,19.7,26.1,00.8,00.6,0667.6,31.1
2021-12-19T10:13:00Z,00000200,01000000,-000.33,-000.02,0000.32,0000.15,0000.40,0000.21,-000.06,0000.02,0000.18,19.7,26.1,00.9,00.6,0667.6,31.1
2021-12-19T10:14:00Z,00000200,01000000,-000.27,0000.01,0000.12,-000.17,0000.38,-000.01,-000.05,0000.14,-000.01,19.8,26.1,00.8,00.5,0667.5,31.1
2021-12-19T10:15:00Z,00000200,01000000,0000.45,0000.49,-000.12,-000.07,0000.33,0000.11,0000.54,0000.24,0000.09,19.8,26.2,00.8,00.6,0667.5,31.1
2021-12-19T10:16:00Z,00000200,01000000,0000.23,0000.16,0000.24,-000.00,0000.20,0000.17,-000.28,-000.07,0000.03,19.9,26.2,00.8,00.6,0667.6,31.1
2021-12-19T10:17:00Z,00000200,01000000,0000.54,-000.01,0000.10,0000.22,0000.23,-000.01,-000.07,-000.03,0000.24,20.0,26.3,00.8,00.6,0667.6,31.1
2021-12-19T10:18:00Z,00000200,01000000,0000.44,-000.00,0000.30,-000.23,0000.25,-000.06,0000.31,0000.22,0000.05,20.0,26.3,00.8,00.6,0667.6,31.1
2021-12-19T10:19:00Z,00000200,01000000,0000.63,-000.04,0000.24,0000.49,0000.06,0000.11,-000.60,-000.23,-000.29,20.1,26.3,00.8,00.5,0667.6,31.2
2021-12-19T10:20:00Z,00000200,01000000,0000.21,0000.04,0000.20,-000.13,0000.26,-000.11,0000.69,0000.23,0000.14,20.0,26.3,00.7,00.5,0667.6,31.2
2021-12-19T10:21:00Z,00000200,01000000,0000.03,-000.05,0000.19,0000.45,0000.05,-000.20,-000.37,-000.22,-000.12,20.0,26.3,00.7,00.5,0667.6,31.1
2021-12-19T10:22:00Z,00000200,01000000,0000.42,-000.12,-000.12,0000.16,0000.44,-000.24,0000.36,0000.38,0000.14,20.0,26.3,00.6,00.4,0667.6,31.1
2021-12-19T10:23:00Z,00000200,01000000,0000.23,0000.03,0000.09,0000.69,0000.28,-000.07,-000.22,-000.59,-000.14,19.9,26.3,00.6,00.4,0667.6,31.1
2021-12-19T10:24:00Z,00000200,01000000,-000.16,-000.03,-000.05,0000.18,0000.40,0000.44,-000.16,0000.09,-000.11,19.9,26.3,00.6,00.4,0667.6,31.1
2021-12-19T10:25:00Z,00000200,01000000,0000.35,0000.09,0000.10,0000.25,0000.07,0000.24,-000.05,-000.20,-000.23,19.9,26.2,00.6,00.4,0667.6,31.1
2021-12-19T10:26:00Z,00000200,01000000,-000.20,0000.27,0000.04,-000.19,0000.30,0000.16,-000.13,0000.06,-000.04,19.8,26.2,00.6,00.4,0667.7,31.1
2021-12-19T10:27:00Z,00000200,01000000,0000.01,-000.13,0000.24,0000.26,0000.16,0000.24,0000.13,-000.23,0000.14,19.9,26.2,00.4,00.3,0667.6,31.1
2021-12-19T10:28:00Z,00000200,01000000,-000.07,0000.14,0000.30,0001.03,-000.16,-000.08,0000.00,0000.29,0000.48,19.9,26.2,00.5,00.3,0667.7,31.1
2021-12-19T10:29:00Z,00000200,01000000,0000.96,0000.34,0000.15,0000.96,0000.34,0000.06,0000.10,0000.24,0000.09,20.0,26.2,00.5,00.4,0667.7,31.1
2021-12-19T10:30:00Z,00000200,01000000,0000.50,0000.41,0000.08,-000.05,0000.40,0000.37,-000.12,-000.18,-000.06,20.0,26.3,00.4,00.3,0667.7,31.1
2021-12-19T10:31:00Z,00000200,01000000,0000.21,-000.05,0000.03,0000.16,-000.15,0000.01,-000.16,-000.33,-000.35,20.1,26.3,00.4,00.3,0667.8,31.1
2021-12-19T10:32:00Z,00000200,01000000,0001.04,-000.03,0000.11,0000.17,0000.18,0000.42,0000.07,0000.41,0000.40,20.1,26.4,00.4,00.2,0667.7,31.2
2021-12-19T10:33:00Z,00000200,01000000,0000.34,0000.44,-000.03,-000.05,0000.25,-000.22,0000.13,0000.05,-000.16,20.1,26.4,00.4,00.2,0667.8,31.1
2021-12-19T10:34:00Z,00000200,01000000,0000.24,0000.36,0000.11,0000.41,0000.15,-000.18,-000.27,-000.37,-000.33,20.0,26.3,00.3,00.2,0667.8,31.1
2021-12-19T10:35:00Z,00000200,01000000,0000.58,-000.10,-000.40,-000.03,0000.35,-000.08,-000.00,-000.05,-000.09,20.0,26.3,00.2,00.2,0667.8,31.1
2021-12-19T10:36:00Z,00000200,01000000,0000.31,0000.31,0000.00,0001.21,0000.40,0000.18,0000.30,0000.08,0000.39,20.0,26.3,00.3,00.2,0667.8,31.1
2021-12-19T10:37:00Z,00000200,01000000,0000.70,0000.60,0000.11,0000.08,0000.24,-000.06,-000.48,-000.29,-000.14,19.9,26.3,00.2,00.1,0667.8,31.1
2021-12-19T10:38:00Z,00000200,01000000,0000.47,0000.04,0000.10,0000.75,-000.03,0000.22,0000.12,0000.28,-000.23,19.9,26.3,00.2,00.1,0667.7,31.1
2021-12-19T10:39:00Z,00000200,01000000,-000.18,-000.05,0000.12,0000.12,0000.42,0000.19,-000.03,-000.17,-000.02,19.8,26.2,00.3,00.2,0667.7,31.1
2021-12-19T10:40:00Z,00000200,01000000,0000.72,0000.24,0000.21,0000.26,0000.23,0000.09,-000.18,-000.27,0000.09,19.8,26.2,00.2,00.1,0667.8,31.1
2021-12-19T10:41:00Z,00000200,01000000,0000.21,0000.42,-000.15,0000.61,0000.07,0000.40,-000.15,-000.15,-000.28,19.8,26.2,00.1,00.1,0667.7,31.1
2021-12-19T10:42:00Z,00000200,01000000,0000.04,0000.07,0000.29,0000.17,0000.12,0000.07,0000.29,0000.17,0000.34,19.8,26.2,00.1,00.1,0667.7,31.1
2021-12-19T10:43:00Z,00000200,01000000,0000.57,0000.22,0000.01,0000.34,0000.18,0000.19,0000.14,0000.54,0000.19,19.9,26.2,00.2,00.1,0667.7,31.1
2021-12-19T10:44:00Z,00000200,01000000,0000.26,0000.01,0000.07,0000.36,0000.22,-000.12,0000.24,0000.14,-000.15,19.9,26.2,00.2,00.1,0667.7,31.1
2021-12-19T10:45:00Z,00000200,01000000,0000.10,0000.35,0000.23,0000.16,0000.35,-000.22,-000.02,-000.15,0000.40,20.0,26.3,00.2,00.1,0667.7,31.1
2021-12-19T10:46:00Z,00000200,01000000,0000.44,0000.56,0000.16,0000.18,0000.09,0000.10,0000.02,0000.11,-000.27,20.1,26.3,00.2,00.1,0667.7,31.2
2021-12-19T10:47:00Z,00000200,01000000,-000.21,0000.11,0000.10,0000.29,-000.17,-000.26,0000.12,-000.07,0000.48,20.2,26.3,00.2,00.1,0667.7,31.2
2021-12-19T10:48:00Z,00000200,01000000,-000.08,-000.02,0000.04,0000.28,0000.17,-000.12,0000.10,0000.40,-000.01,20.2,26.4,00.2,00.1,0667.7,31.2
2021-12-19T10:49:00Z,00000200,01000000,0000.83,0000.05,-000.03,-000.21,0000.04,0000.18,0000.22,-000.30,-000.43,20.2,26.4,00.2,00.1,0667.7,31.2
2021-12-19T10:50:00Z,00000200,01000000,0000.11,0000.48,0000.32,0000.41,0000.12,0000.28,0000.15,0000.24,0000.21,20.1,26.4,00.2,00.1,0667.7,31.1
2021-12-19T10:51:00Z,00000200,01000000,0000.15,-000.03,0000.09,-000.14,0000.02,-000.03,0000.43,0000.42,0000.52,20.1,26.3,00.2,00.1,0667.7,31.1
2021-12-19T10:52:00Z,00000200,01000000,0000.59,0000.01,0000.15,0000.68,0000.10,-000.06,0000.06,-000.05,-000.13,20.0,26.3,00.1,00.1,0667.7,31.1
2021-12-19T10:53:00Z,00000200,01000000,0000.34,0000.76,0000.20,0000.23,0000.49,0000.11,-000.41,-000.26,0000.12,20.0,26.3,00.2,00.1,0667.6,31.1
2021-12-19T10:54:00Z,00000200,01000000,0000.51,0000.18,0000.04,0000.35,0000.07,-000.07,0000.38,0000.76,0000.16,20.0,26.3,00.2,00.1,0667.7,31.1
2021-12-19T10:55:00Z,00000200,01000000,-000.05,0000.40,0000.07,0000.35,0000.30,0000.45,0000.19,-000.40,-000.09,19.9,26.3,00.2,00.1,0667.7,31.1
2021-12-19T10:56:00Z,00000200,01000000,-000.40,0000.39,-000.08,0000.24,0000.38,0000.01,-000.37,-000.01,0000.04,19.9,26.3,00.2,00.1,0667.7,31.1
2021-12-19T10:57:00Z,00000200,41000000,,,,,,,0000.99,0000.94,0000.74,20.0,26.3,00.3,00.2,0667.7,31.1
2021-12-19T10:58:00Z,00000200,61000000,,,,,,,-000.36,-000.26,-000.43,19.7,26.4,00.2,00.1,0666.8,31.1
2021-12-19T10:59:00Z,00000200,21000000,,,,,,,-000.14,-000.17,0000.25,19.7,26.5,,00.0,0666.8,31.1
